Powrót do katalogu

CONNECTA IOT-10

AktywnyŁącznośćSSO
NORAD 64555·PAYLOAD·🇹🇷 Turkey

Wystrzelony Jun 23, 2025 z Vandenberg Space Force Base

Loading…

Następne Przeloty (najbliższe 24 godziny)

TLE

ŚwieżeSource: Space-Track

Epoka: Sep 14, 2026, 06:08 UTC

1 64555U 25135AD  26257.25575112  .00006051  00000-0  27543-3 0  9997
2 64555  97.4762  11.5079 0001660  58.7523 301.3874 15.21066922 68394

Śledź CONNECTA IOT-10 w czasie rzeczywistym z AllMySat

Download on the App Store